TimeCST,TemperatureF,Dew PointF,Humidity,Sea Level PressureIn,VisibilityMPH,Wind Direction,Wind SpeedMPH,Gust SpeedMPH,PrecipitationIn,Events,Conditions,WindDirDegrees,DateUTC
12:53 AM,32.0,19.0,59,30.25,10.0,ENE,4.6,-,N/A,,Clear,70,2013-02-02 06:53:00
1:53 AM,30.9,19.9,64,30.25,10.0,East,3.5,-,N/A,,Clear,80,2013-02-02 07:53:00
2:53 AM,30.2,19.4,64,30.23,10.0,ESE,3.5,-,N/A,,Clear,110,2013-02-02 08:53:00
3:53 AM,30.0,19.9,66,30.22,10.0,East,6.9,-,N/A,,Clear,80,2013-02-02 09:53:00
4:53 AM,28.9,21.0,72,30.22,10.0,ENE,5.8,-,N/A,,Clear,70,2013-02-02 10:53:00
5:53 AM,28.4,21.2,74,30.21,10.0,ENE,5.8,-,N/A,,Clear,60,2013-02-02 11:53:00
6:53 AM,28.9,21.0,72,30.23,10.0,ENE,3.5,-,N/A,,Clear,60,2013-02-02 12:53:00
7:53 AM,30.9,21.9,69,30.25,10.0,Calm,Calm,-,N/A,,Clear,0,2013-02-02 13:53:00
8:53 AM,35.1,21.9,59,30.26,10.0,ENE,3.5,-,N/A,,Clear,60,2013-02-02 14:53:00
9:53 AM,39.9,21.9,49,30.28,10.0,Calm,Calm,-,N/A,,Clear,0,2013-02-02 15:53:00
10:53 AM,45.0,23.0,42,30.29,10.0,Calm,Calm,-,N/A,,Clear,0,2013-02-02 16:53:00
11:53 AM,48.9,27.0,43,30.27,10.0,WSW,10.4,-,N/A,,Clear,250,2013-02-02 17:53:00
12:53 PM,52.0,28.9,41,30.25,10.0,Variable,6.9,-,N/A,,Clear,0,2013-02-02 18:53:00
1:53 PM,55.9,30.0,37,30.22,10.0,West,11.5,-,N/A,,Clear,260,2013-02-02 19:53:00
2:53 PM,57.0,30.9,37,30.21,10.0,WSW,11.5,-,N/A,,Clear,250,2013-02-02 20:53:00
3:53 PM,57.0,30.9,37,30.22,10.0,WSW,10.4,-,N/A,,Clear,240,2013-02-02 21:53:00
4:53 PM,57.0,30.0,36,30.22,10.0,WSW,13.8,-,N/A,,Clear,250,2013-02-02 22:53:00
5:53 PM,52.0,30.9,45,30.24,10.0,West,10.4,-,N/A,,Clear,270,2013-02-02 23:53:00
6:53 PM,48.9,30.0,48,30.26,10.0,West,10.4,-,N/A,,Clear,280,2013-02-03 00:53:00
7:53 PM,44.1,28.9,55,30.27,10.0,WNW,6.9,-,N/A,,Clear,290,2013-02-03 01:53:00
8:53 PM,46.0,28.9,51,30.27,10.0,WSW,4.6,-,N/A,,Clear,240,2013-02-03 02:53:00
9:53 PM,39.9,30.0,68,30.27,10.0,WSW,8.1,-,N/A,,Clear,250,2013-02-03 03:53:00
10:53 PM,39.9,30.0,68,30.26,10.0,West,9.2,-,N/A,,Clear,260,2013-02-03 04:53:00
11:53 PM,39.0,30.9,73,30.25,10.0,West,10.4,-,N/A,,Clear,270,2013-02-03 05:53:00